Wind_Speed
33 31 30 29 29 29 30 29 30 30 29 27 26 26 27 29 30 29 28 27 26 26 25 25 26 26 26 27 26 26 25 25 25 25 25 24 24 24 23 23 22 22 22 21
35 34 34 34 32 31 30 29 31 31 32 29 28 29 29 29 31 31 29 29 29 28 27 26 27 27 28 28 28 28 27 27 27 27 27 26 26 25 25 25 25 24 24 24
37 35 36 37 34 32 33 33 32 31 32 31 30 31 31 31 31 31 31 30 29 29 29 28 28 29 29 30 29 29 29 29 29 29 28 28 29 28 27 27 27 27 27 27
37 37 38 35 33 33 34 34 34 35 35 33 32 32 33 34 34 33 32 32 31 31 31 30 30 30 31 31 31 30 30 30 30 30 30 30 29 29 29 29 29 29 29 29
36 35 36 34 32 32 33 36 35 35 35 34 34 34 34 35 35 33 34 33 33 33 33 32 32 32 32 31 31 31 31 31 31 31 30 30 30 31 31 31 32 31 30 30
35 35 35 34 32 33 34 37 37 36 35 33 33 34 33 33 33 34 35 33 33 33 33 33 32 32 32 32 32 32 32 32 32 32 32 32 32 33 33 33 32 32 32 32
36 36 35 35 33 32 34 35 35 34 34 33 33 33 34 33 33 34 34 33 32 33 33 33 33 33 32 33 33 33 33 34 34 34 34 34 34 34 33 33 34 33 33 33
35 37 36 35 33 34 34 34 34 34 34 35 34 34 34 34 33 34 33 32 32 32 33 33 33 33 34 35 35 34 35 34 34 35 35 35 35 35 34 35 35 34 34 34
35 36 36 36 35 35 34 34 34 35 36 35 36 36 34 34 35 34 33 33 33 33 34 33 33 34 35 35 35 35 35 35 35 36 36 36 35 35 35 36 36 35 35 36
36 36 36 35 35 35 34 35 35 35 35 36 37 36 36 35 35 34 34 34 33 34 34 33 33 34 34 35 35 35 34 34 35 36 35 35 36 35 36 35 36 36 36 36
37 37 36 35 35 35 35 35 36 36 37 38 37 37 36 35 35 35 34 34 34 34 34 34 34 34 34 34 34 34 34 35 35 35 35 35 35 34 35 35 36 36 36 36
35 37 38 38 37 36 36 36 37 37 37 36 36 35 35 35 35 34 34 34 33 33 33 32 33 33 33 33 33 34 34 34 34 34 35 34 34 34 34 34 34 34 34 34
35 35 36 37 36 36 35 35 34 34 34 34 34 34 34 34 34 33 34 34 33 32 32 31 31 32 32 33 33 33 32 32 32 33 33 33 33 32 33 33 34 35 34 33
35 35 34 34 34 34 33 33 33 32 32 32 32 31 31 32 33 32 32 32 32 32 31 31 31 32 32 32 32 31 30 30 30 30 31 31 30 31 32 32 32 33 33 32
33 33 32 32 31 31 31 31 31 31 30 30 30 30 30 31 31 31 31 31 32 32 31 31 31 32 31 30 29 29 29 29 29 29 28 29 29 31 31 31 32 32 31 32
29 29 29 30 28 28 29 29 29 29 29 28 29 28 28 29 29 29 29 29 30 29 29 30 31 30 29 29 29 30 29 28 28 28 28 29 29 30 30 30 31 30 30 30
25 26 27 27 27 27 27 28 28 28 28 27 27 27 27 27 27 27 28 28 28 28 29 29 29 29 29 29 29 29 28 28 28 28 29 29 28 28 28 29 29 29 29 29
21 22 23 24 24 25 25 25 26 26 26 26 27 26 25 25 26 26 26 27 27 28 28 28 28 28 27 27 28 28 28 28 29 29 28 28 27 27 28 28 29 29 28 28
19 19 20 20 21 22 23 23 23 23 23 24 24 24 24 24 24 24 25 25 25 26 26 26 25 25 25 26 27 27 27 26 27 27 27 26 26 26 27 28 28 28 29 29
16 17 18 18 19 20 20 21 20 20 21 21 22 22 22 22 22 22 23 23 24 24 25 25 24 24 24 25 25 25 24 24 24 25 26 26 26 26 26 26 27 28 28 29
14 14 15 16 17 17 18 18 18 18 18 19 20 20 21 21 21 21 21 21 22 22 21 21 21 22 22 23 22 22 23 23 23 23 24 25 25 25 25 25 25 26 27 28
11 11 12 13 15 14 15 16 16 16 17 17 18 19 20 20 20 19 19 19 19 19 20 20 20 20 20 20 20 21 21 21 22 22 23 23 24 24 24 25 26 26 27 27
12 11 11 11 11 12 12 13 14 14 15 15 16 16 18 18 17 17 17 18 19 19 19 18 18 18 19 19 19 19 20 21 22 22 22 22 22 23 24 25 25 26 26 27
11 11 11 11 11 11 11 11 12 13 13 13 13 14 15 15 15 16 16 16 17 17 17 17 18 19 19 18 19 19 20 20 20 20 21 21 22 22 24 24 25 25 25 26
10 11 11 11 11 11 10 11 11 12 11 12 11 12 12 13 13 14 15 15 15 16 16 17 18 18 18 18 18 18 18 19 20 21 21 22 23 24 24 24 24 25 26 26
10 10 10 10 10 10 10 10 11 11 11 12 11 11 11 12 12 12 12 13 14 15 15 16 17 17 17 18 18 18 19 20 20 21 22 23 24 24 24 25 26 27 27 27
8 9 10 10 9 9 10 10 11 11 10 10 10 10 10 10 11 11 12 12 13 14 14 15 15 16 16 17 18 19 20 21 21 22 23 24 24 25 25 25 26 27 28 28
Wind_Direction
237 233 235 238 241 242 244 242 244 247 250 251 255 256 258 261 262 264 265 265 267 269 270 270 271 274 276 279 281 282 283 284 285 286 286 286 289 290 291 291 291 291 291 291
241 239 238 239 240 242 246 247 248 250 251 252 255 255 256 259 261 264 265 265 266 268 269 270 271 272 274 277 278 280 281 281 281 282 282 282 283 285 287 288 288 288 288 288
241 241 242 240 239 241 244 245 248 249 250 251 255 257 257 259 260 263 265 266 267 268 269 269 269 271 272 275 277 278 279 279 280 281 281 280 281 282 284 286 287 287 286 285
243 242 244 242 239 240 243 246 247 249 250 252 253 257 259 260 263 264 265 267 267 268 269 268 268 270 271 274 275 277 278 278 280 280 280 279 279 280 282 285 286 286 285 284
244 247 250 245 240 239 241 243 245 250 253 254 254 257 260 261 263 265 267 267 267 266 266 267 268 269 271 273 274 275 276 277 278 278 278 278 278 279 281 283 284 283 284 284
246 249 249 246 244 241 242 246 246 250 253 254 256 257 260 264 266 265 266 266 265 266 266 266 268 269 272 273 274 276 276 276 275 276 276 276 277 278 279 280 283 283 283 283
248 250 250 246 246 245 243 246 249 251 254 255 254 256 261 263 264 265 266 267 266 265 267 268 269 271 272 273 274 275 276 275 275 275 275 275 275 275 277 279 281 282 282 283
246 247 246 247 247 246 245 247 250 252 254 253 253 257 260 263 264 265 265 265 265 265 267 270 271 271 272 273 274 274 275 275 275 275 275 275 275 275 276 278 280 281 282 283
245 247 248 248 248 249 249 248 249 251 252 253 255 258 260 262 262 264 265 264 263 265 267 269 270 271 273 274 275 275 274 275 275 276 275 275 275 275 276 276 278 280 281 283
244 247 247 248 248 249 249 248 248 251 253 255 257 259 259 260 260 262 264 264 264 265 266 267 270 272 274 275 276 274 273 275 276 276 275 275 275 276 277 278 280 281 282 283
246 247 248 249 249 250 251 249 250 252 254 256 257 257 258 259 260 261 263 264 265 265 265 267 269 271 274 274 274 273 274 276 276 275 275 275 274 275 277 278 280 280 281 283
247 248 250 248 247 250 250 249 250 251 253 255 256 257 257 259 259 261 262 264 264 264 265 267 269 271 274 275 275 275 276 277 277 276 274 274 274 275 277 278 280 281 282 283
249 249 249 247 248 250 250 250 250 252 253 253 255 256 256 257 259 261 262 262 263 264 266 267 269 271 273 275 275 276 277 278 278 277 276 277 277 276 277 278 280 281 282 283
248 251 251 248 247 248 249 250 251 253 254 254 254 254 255 256 257 259 261 261 261 263 265 267 268 270 273 274 274 274 276 277 278 278 279 280 280 279 278 280 281 281 281 282
250 250 248 248 247 247 249 250 251 251 252 252 253 253 255 256 257 258 259 260 261 262 263 266 268 270 271 272 273 274 275 276 277 279 280 281 282 281 280 281 282 283 282 282
250 251 250 250 250 251 250 250 250 251 252 252 253 254 255 256 257 257 257 259 261 262 264 266 268 271 272 273 273 274 275 277 279 280 281 281 282 282 282 283 283 283 284 282
249 249 248 248 249 248 247 249 249 250 250 249 251 251 252 253 255 255 256 258 260 263 265 267 269 270 271 272 274 276 277 279 280 281 282 281 281 282 283 283 284 285 284 283
250 247 247 246 245 243 244 246 247 247 246 246 248 248 250 252 254 255 257 257 259 262 263 265 267 269 270 273 274 277 279 279 280 282 283 282 281 281 282 282 284 285 285 286
249 246 246 246 246 245 242 242 244 245 245 246 247 247 251 253 254 255 257 258 260 263 264 264 266 269 272 275 277 277 278 279 280 281 282 281 281 281 282 281 282 283 285 286
248 245 245 245 245 244 242 241 243 245 246 247 248 248 250 252 254 258 259 261 263 264 265 266 268 272 274 276 276 276 277 278 280 281 281 282 282 283 283 283 283 284 286 287
248 246 243 243 244 243 240 240 240 242 244 247 248 249 250 252 255 258 260 260 261 263 264 267 271 273 275 275 274 274 276 279 280 282 282 282 282 283 283 283 285 287 288 288
246 248 244 242 239 238 238 238 239 243 246 248 250 250 251 254 255 255 256 258 261 263 265 268 272 274 275 275 274 275 278 281 282 282 282 283 284 284 285 286 286 288 289 290
246 248 248 247 244 244 244 244 248 252 254 252 250 251 254 255 254 254 257 259 262 266 267 268 270 273 275 276 277 279 280 283 284 283 284 286 287 288 287 286 287 289 291 291
240 243 244 245 245 248 249 250 254 257 257 256 256 256 255 256 254 254 257 260 263 266 268 269 271 273 274 276 280 283 283 285 286 286 286 288 289 290 290 290 289 290 292 293
242 245 247 250 250 253 254 256 260 263 267 266 261 260 258 256 256 256 256 262 269 269 268 271 273 274 274 277 280 284 285 287 289 289 287 289 291 293 293 293 293 295 297 297
242 245 249 251 253 257 262 265 265 268 270 271 270 265 262 259 260 260 261 264 266 267 270 273 274 275 275 277 279 283 286 288 288 290 291 292 292 293 293 294 295 298 298 298
248 250 250 252 254 257 263 266 269 267 264 264 264 265 260 259 261 261 266 267 267 270 272 274 276 277 277 278 280 283 286 288 290 291 291 292 292 294 295 296 298 299 299 299
Height
5828 5833 5836 5838 5840 5843 5846 5848 5851 5853 5853 5855 5855 5855 5855 5854 5854 5855 5857 5858 5859 5860 5860 5860 5861 5861 5861 5860 5860 5860 5860 5859 5859 5858 5857 5856 5855 5855 5854 5853 5852 5851 5850 5849
5819 5824 5827 5829 5833 5835 5837 5841 5843 5844 5845 5848 5848 5848 5847 5847 5848 5849 5850 5851 5852 5853 5854 5854 5854 5854 5853 5853 5853 5853 5853 5853 5852 5851 5851 5850 5849 5849 5848 5847 5846 5845 5844 5843
5810 5815 5816 5819 5825 5828 5831 5832 5834 5835 5837 5838 5839 5840 5840 5840 5840 5841 5842 5843 5845 5846 5846 5847 5847 5847 5847 5846 5846 5846 5846 5846 5845 5844 5843 5843 5842 5842 5841 5840 5839 5838 5837 5835
5801 5805 5805 5813 5817 5819 5821 5823 5825 5825 5827 5828 5831 5831 5831 5832 5833 5833 5834 5835 5837 5838 5838 5839 5839 5839 5839 5839 5839 5838 5838 5838 5837 5836 5836 5835 5835 5834 5834 5833 5831 5830 5829 5827
5792 5794 5797 5803 5806 5810 5812 5813 5816 5816 5817 5819 5822 5823 5823 5824 5825 5825 5826 5827 5828 5829 5830 5830 5830 5831 5831 5831 5831 5830 5830 5829 5829 5828 5828 5827 5827 5826 5825 5824 5823 5822 5820 5819
5782 5785 5788 5795 5797 5798 5801 5803 5805 5807 5808 5810 5812 5813 5814 5815 5815 5816 5816 5817 5818 5820 5821 5821 5822 5822 5822 5822 5822 5822 5821 5821 5820 5820 5819 5819 5818 5818 5817 5816 5814 5813 5812 5811
5773 5775 5779 5784 5785 5787 5791 5794 5795 5797 5799 5801 5803 5804 5805 5805 5807 5807 5807 5808 5809 5811 5812 5812 5812 5813 5813 5813 5813 5813 5812 5811 5811 5810 5810 5809 5809 5808 5807 5806 5805 5804 5803 5802
5764 5766 5771 5772 5775 5778 5779 5782 5784 5786 5789 5791 5793 5794 5795 5797 5798 5799 5800 5800 5801 5802 5803 5803 5803 5804 5804 5804 5804 5803 5802 5802 5801 5801 5800 5799 5799 5798 5797 5796 5795 5794 5793 5791
5755 5758 5759 5761 5764 5767 5768 5771 5774 5776 5778 5780 5783 5784 5787 5789 5789 5790 5791 5791 5792 5793 5794 5794 5794 5795 5795 5794 5794 5793 5793 5792 5791 5790 5789 5789 5788 5788 5787 5786 5785 5784 5783 5782
5745 5747 5748 5751 5753 5755 5757 5761 5764 5766 5768 5770 5773 5775 5777 5779 5780 5781 5781 5782 5784 5784 5785 5785 5785 5785 5785 5785 5784 5784 5783 5782 5781 5780 5779 5778 5778 5778 5777 5775 5774 5773 5772 5772
5734 5737 5738 5740 5743 5745 5748 5751 5753 5755 5758 5761 5763 5765 5767 5769 5770 5771 5772 5774 5775 5775 5776 5776 5777 5776 5776 5775 5774 5774 5773 5772 5771 5771 5770 5769 5768 5767 5767 5766 5765 5764 5763 5762
5724 5727 5728 5731 5733 5735 5737 5740 5742 5745 5748 5751 5753 5755 5758 5759 5760 5761 5763 5765 5765 5766 5767 5767 5767 5767 5767 5766 5765 5764 5764 5763 5762 5761 5760 5758 5758 5758 5757 5757 5756 5755 5754 5753
5714 5716 5718 5721 5724 5727 5729 5731 5733 5736 5739 5742 5744 5746 5748 5749 5751 5752 5754 5756 5757 5757 5758 5758 5759 5758 5758 5757 5756 5755 5754 5753 5752 5751 5750 5750 5749 5749 5748 5748 5747 5746 5744 5743
5705 5706 5709 5712 5715 5717 5719 5722 5724 5727 5729 5732 5735 5737 5739 5740 5742 5744 5745 5746 5747 5748 5749 5750 5750 5750 5749 5749 5747 5746 5746 5745 5744 5743 5742 5741 5740 5740 5739 5738 5737 5736 5735 5734
5696 5698 5700 5703 5705 5708 5711 5713 5716 5718 5721 5724 5726 5728 5730 5732 5734 5736 5737 5738 5739 5740 5741 5741 5741 5741 5741 5740 5738 5738 5737 5736 5735 5734 5733 5733 5732 5731 5730 5729 5728 5727 5726 5726
5689 5691 5693 5696 5698 5700 5703 5705 5708 5710 5712 5715 5717 5720 5721 5723 5725 5727 5728 5730 5731 5731 5732 5733 5733 5733 5732 5731 5730 5730 5729 5728 5727 5726 5725 5724 5723 5722 5721 5720 5719 5719 5717 5717
5682 5684 5687 5689 5691 5693 5695 5697 5699 5702 5704 5706 5709 5712 5714 5715 5717 5719 5720 5722 5723 5723 5724 5724 5725 5724 5724 5723 5722 5722 5721 5720 5719 5718 5717 5716 5715 5714 5713 5712 5711 5710 5709 5708
5677 5679 5681 5683 5684 5686 5688 5690 5692 5695 5697 5699 5702 5704 5706 5708 5710 5711 5713 5714 5715 5715 5716 5716 5716 5716 5716 5715 5715 5714 5713 5712 5711 5710 5709 5708 5707 5705 5705 5704 5703 5701 5700 5699
5673 5674 5676 5677 5679 5680 5682 5684 5686 5687 5689 5692 5695 5698 5700 5701 5703 5704 5705 5706 5707 5708 5708 5708 5708 5708 5708 5707 5707 5706 5705 5704 5703 5702 5701 5700 5699 5698 5697 5696 5695 5694 5693 5691
5669 5670 5671 5673 5674 5676 5677 5680 5681 5683 5685 5687 5689 5691 5693 5695 5696 5697 5698 5699 5699 5700 5701 5701 5701 5701 5700 5700 5699 5698 5697 5696 5695 5695 5693 5692 5691 5690 5689 5688 5687 5686 5685 5683
5666 5667 5668 5670 5671 5672 5673 5675 5677 5678 5680 5682 5683 5685 5687 5688 5689 5690 5691 5692 5693 5693 5693 5693 5693 5693 5693 5692 5691 5691 5690 5689 5688 5687 5686 5685 5684 5683 5682 5681 5679 5678 5677 5675
5663 5664 5665 5667 5667 5668 5670 5670 5672 5674 5675 5676 5678 5679 5681 5682 5683 5684 5685 5686 5686 5686 5687 5687 5687 5687 5686 5685 5685 5684 5683 5682 5681 5680 5679 5678 5677 5676 5674 5673 5672 5671 5669 5667
5661 5662 5663 5664 5665 5666 5667 5668 5669 5670 5671 5672 5673 5674 5675 5676 5677 5678 5679 5680 5680 5681 5681 5681 5681 5681 5680 5679 5679 5678 5677 5676 5675 5674 5673 5671 5670 5669 5668 5666 5665 5663 5662 5660
5660 5660 5661 5662 5663 5663 5665 5666 5666 5667 5668 5668 5668 5669 5670 5670 5671 5672 5673 5674 5675 5675 5675 5675 5676 5675 5675 5674 5673 5672 5671 5670 5669 5667 5666 5665 5664 5662 5661 5659 5657 5655 5654 5652
5657 5658 5659 5660 5660 5661 5662 5663 5663 5664 5664 5664 5665 5665 5665 5666 5667 5668 5668 5669 5670 5670 5670 5670 5670 5670 5669 5668 5667 5666 5665 5664 5663 5662 5660 5658 5657 5656 5654 5652 5650 5648 5646 5644
5655 5656 5657 5657 5658 5658 5659 5659 5660 5660 5661 5661 5661 5661 5661 5662 5663 5663 5664 5664 5665 5665 5665 5665 5665 5664 5664 5663 5662 5661 5660 5659 5657 5656 5654 5652 5651 5649 5647 5645 5643 5641 5638 5636
5653 5653 5654 5655 5655 5656 5656 5657 5657 5657 5658 5658 5658 5658 5659 5659 5660 5660 5660 5660 5661 5661 5661 5660 5660 5659 5658 5658 5657 5656 5654 5653 5651 5650 5648 5646 5643 5642 5640 5637 5635 5633 5630 5628